User: anonymous   Login
Location: Newark
(44.4156°N, 12.1972°E)
Time: 12:40:01
(UTC+00:00)
Language:

STARLINK-1095 - Orbit

View from above orbital plane
View from above orbital plane
View from above satellite
View from above satellite

Ground track
Ground track

The orbit data is extracted from the following two-line orbital elements,

1 44971U 20001BK  20095.25001157 -.00023315  00000-0 -24919-3 0  9999
2 44971  53.0007 319.8913 0001385  55.1156  61.4907 15.62785033 13872
Epoch (UTC): 04 April 2020 06:00:01
Eccentricity: 0.0001385
inclination: 53.0007°
perigee height: 378 km
apogee height: 380 km
right ascension of ascending node: 319.8913°
argument of perigee: 55.1156°
revolutions per day: 15.62785033
mean anomaly at epoch: 61.4907°
orbit number at epoch: 1387

The dashed part of the orbit path shows where the satellite is in the earth's shadow,  

DLR